EW5042 Messina IT current weather conditions

sailwx.info

Wind from 044

Air temperature 21.7° C
Dewpoint 17.2° C

Last reported at 2020-Jul-14 04:01 UTC.
Time now 2020-Jul-14 04:29 UTC

Location: N 38°13' E 015°32'.
View on Google Maps.

See reports from other nearby stations

  
Tides and Currents Weather Stations Pressure Air Temp Water Temp Dewpoint Dewpoint Depression Visibility Wind Speed Wind Dir Waves Ship Positions
date/time (UTC)wind fromknots sea level pressurealtimeterstation pressurevisibilityair tempwater tempwave heightnotes
2020-Jul-14 04:01 044 21.7
2020-Jul-14 03:46 055 22.2
2020-Jul-14 03:31 055 22.2
2020-Jul-14 03:16 054 22.2
2020-Jul-14 03:01 127 22.2
2020-Jul-14 02:47 171 22.2
2020-Jul-14 02:31 303 1 gusting 5 22.2
2020-Jul-14 02:16 319 22.2
2020-Jul-14 02:02 309 22.2
2020-Jul-14 01:46 342 22.2
2020-Jul-14 01:31 319 22.8
2020-Jul-14 01:15 026 1 gusting 6 22.8
2020-Jul-14 01:00 340 22.8
2020-Jul-14 00:47 165 22.8
2020-Jul-14 00:32 332 22.8
2020-Jul-14 00:17 206 22.8
2020-Jul-14 00:01 188 0 gusting 7 22.8
2020-Jul-13 23:52 175 1 gusting 6 22.8
2020-Jul-13 23:31 301 1 gusting 4 22.8
2020-Jul-13 23:16 188 22.8
2020-Jul-13 23:01 225 0 gusting 4 22.8
2020-Jul-13 22:46 313 22.8
2020-Jul-13 22:31 307 1 gusting 4 22.8
2020-Jul-13 22:16 028 22.8
2020-Jul-13 21:46 252 1 gusting 8 23.3
2020-Jul-13 21:31 311 3 gusting 9 23.3
2020-Jul-13 21:16 339 1 gusting 8 23.3
2020-Jul-13 21:01 267 1 gusting 5 23.3
2020-Jul-13 20:45 232 1 gusting 6 23.3
2020-Jul-13 20:31 301 2 gusting 6 23.3
2020-Jul-13 20:15 302 1 gusting 4 23.3
2020-Jul-13 20:01 218 23.3
2020-Jul-13 19:47 264 0 gusting 5 23.3
2020-Jul-13 19:31 275 1 gusting 4 23.3
2020-Jul-13 19:16 130 0 gusting 3 23.3
2020-Jul-13 19:02 143 23.3
2020-Jul-13 18:46 190 0 gusting 4 23.3
2020-Jul-13 18:31 140 23.9
2020-Jul-13 18:17 173 0 gusting 4 23.9
2020-Jul-13 18:01 128 0 gusting 3 23.9
2020-Jul-13 17:47 119 0 gusting 5 24.4
2020-Jul-13 17:31 188 24.4
2020-Jul-13 17:16 279 0 gusting 5 24.4
2020-Jul-13 17:02 132 0 gusting 3 25.0
2020-Jul-13 16:47 109 25.0
2020-Jul-13 16:30 082 25.0
2020-Jul-13 16:17 120 1 gusting 7 25.6
2020-Jul-13 16:02 040 1 gusting 5 26.1
2020-Jul-13 15:45 137 26.1
2020-Jul-13 15:31 185 0 gusting 4 26.7
2020-Jul-13 15:16 180 1 gusting 7 26.7
2020-Jul-13 15:00 261 1 gusting 6 27.2
2020-Jul-13 14:31 149 1 gusting 8 27.2
2020-Jul-13 14:16 269 0 gusting 5 27.8
2020-Jul-13 14:01 111 1 gusting 5 27.2
2020-Jul-13 13:45 284 2 gusting 5 27.2
2020-Jul-13 13:30 145 0 gusting 7 27.2
2020-Jul-13 13:15 171 1 gusting 3 27.2
2020-Jul-13 13:01 166 1 gusting 6 27.8
2020-Jul-13 12:45 266 0 gusting 5 28.3
2020-Jul-13 12:30 136 0 gusting 5 28.9
2020-Jul-13 12:15 149 0 gusting 6 28.3
2020-Jul-13 12:01 132 0 gusting 3 28.3
2020-Jul-13 11:45 126 1 gusting 4 28.9
2020-Jul-13 11:30 198 2 gusting 6 28.3
2020-Jul-13 11:15 151 0 gusting 6 28.9
2020-Jul-13 11:00 231 1 gusting 4 29.4
2020-Jul-13 10:45 136 1 gusting 4 29.4
2020-Jul-13 10:30 139 0 gusting 4 28.9
2020-Jul-13 10:15 172 28.9
2020-Jul-13 10:00 121 28.9
2020-Jul-13 09:45 144 0 gusting 7 28.9
2020-Jul-13 09:33 188 2 gusting 6 29.4
2020-Jul-13 09:16 102 0 gusting 2 28.9
2020-Jul-13 09:00 079 0 gusting 3 28.9
2020-Jul-13 08:45 123 0 gusting 2 28.9
2020-Jul-13 08:31 095 0 gusting 4 27.8
2020-Jul-13 08:15 090 0 gusting 2 28.3
2020-Jul-13 08:00 090 28.3
2020-Jul-13 07:45 093 0 gusting 3 27.8
2020-Jul-13 07:30 355 0 gusting 3 27.2
2020-Jul-13 07:15 097 0 gusting 3 27.2
2020-Jul-13 06:47 086 0 gusting 4 26.1
2020-Jul-13 06:31 096 1 gusting 4 25.6
2020-Jul-13 06:16 106 0 gusting 3 25.0
2020-Jul-13 06:01 086 0 gusting 2 24.4
2020-Jul-13 05:45 085 0 gusting 5 23.9
2020-Jul-13 05:30 094 0 gusting 5 23.3
2020-Jul-13 05:15 103 0 gusting 5 22.8
2020-Jul-13 05:01 077 22.8
2020-Jul-13 04:45 136 22.2
2020-Jul-13 04:30 136 21.7
2020-Jul-13 04:15 136 21.7
2020-Jul-13 04:00 136 22.2
2020-Jul-13 03:45 136 22.2
2020-Jul-13 03:15 136 22.2
2020-Jul-13 03:00 136 22.2
2020-Jul-13 02:45 136 22.2
2020-Jul-13 02:17 136 22.2
2020-Jul-13 02:01 136 22.8
2020-Jul-13 01:47 136 22.8
2020-Jul-13 01:15 080 22.8
2020-Jul-13 01:01 078 0 gusting 3 22.8
2020-Jul-13 00:46 165 22.8
2020-Jul-13 00:31 039 0 gusting 7 22.8
2020-Jul-13 00:15 018 22.8
2020-Jul-13 00:00 355 22.8
2020-Jul-12 23:46 234 0 gusting 3 23.3
2020-Jul-12 23:31 233 23.3
2020-Jul-12 23:15 262 23.3
2020-Jul-12 23:01 259 0 gusting 3 23.3
2020-Jul-12 22:46 296 23.3
2020-Jul-12 22:30 344 23.3
2020-Jul-12 22:15 264 0 gusting 3 23.3
2020-Jul-12 22:00 312 0 gusting 3 23.3
2020-Jul-12 21:46 298 0 gusting 3 23.3
2020-Jul-12 21:30 257 23.3
2020-Jul-12 21:15 186 23.3
2020-Jul-12 21:00 184 23.3
2020-Jul-12 20:45 237 23.9
2020-Jul-12 20:30 351 0 gusting 5 23.9
2020-Jul-12 20:15 025 23.9
2020-Jul-12 20:00 302 23.9
2020-Jul-12 19:46 355 0 gusting 3 23.9
2020-Jul-12 19:15 019 23.9
2020-Jul-12 19:00 317 23.9
2020-Jul-12 18:45 033 24.4
2020-Jul-12 18:15 086 0 gusting 3 24.4
2020-Jul-12 18:00 300 25.0
2020-Jul-12 17:45 319 25.0
2020-Jul-12 17:30 154 0 gusting 4 25.0
2020-Jul-12 16:46 320 1 gusting 6 26.1
2020-Jul-12 16:32 190 0 gusting 5 26.1
2020-Jul-12 16:16 205 26.7
2020-Jul-12 16:01 355 0 gusting 5 26.7
2020-Jul-12 15:47 350 0 gusting 4 27.2
2020-Jul-12 15:32 217 0 gusting 7 28.3
2020-Jul-12 15:16 100 1 gusting 5 28.9
2020-Jul-12 15:01 107 0 gusting 7 29.4
2020-Jul-12 14:46 348 1 gusting 3 30.0
2020-Jul-12 14:31 181 0 gusting 6 30.0
2020-Jul-12 14:16 086 1 gusting 6 29.4
2020-Jul-12 13:30 158 1 gusting 6 29.4
2020-Jul-12 13:15 079 2 gusting 8 29.4
2020-Jul-12 13:00 065 1 gusting 7 29.4
2020-Jul-12 12:45 117 0 gusting 4 29.4
2020-Jul-12 12:31 084 1 gusting 7 28.9
2020-Jul-12 12:16 190 1 gusting 7 28.9
2020-Jul-12 12:00 136 2 gusting 9 28.9
2020-Jul-12 11:45 187 1 gusting 9 28.9
2020-Jul-12 11:31 161 3 gusting 9 28.3
2020-Jul-12 11:15 159 4 gusting 13 28.3
2020-Jul-12 11:01 123 2 gusting 9 27.8
2020-Jul-12 10:45 094 4 gusting 10 27.8
2020-Jul-12 10:31 098 4 gusting 10 27.8
2020-Jul-12 10:15 125 2 gusting 9 28.3
2020-Jul-12 10:01 108 5 gusting 9 27.8
2020-Jul-12 09:46 163 4 gusting 8 27.8
2020-Jul-12 09:31 088 3 gusting 8 27.8
2020-Jul-12 09:16 094 3 gusting 6 27.8
2020-Jul-12 09:01 126 1 gusting 7 27.8
2020-Jul-12 08:45 092 1 gusting 6 27.8
2020-Jul-12 08:31 029 0 gusting 5 27.2
2020-Jul-12 08:17 152 0 gusting 4 27.2
2020-Jul-12 08:00 103 0 gusting 5 27.2
2020-Jul-12 07:45 014 0 gusting 6 26.7
2020-Jul-12 07:30 159 26.7
2020-Jul-12 07:15 105 26.1
2020-Jul-12 07:00 097 1 gusting 6 25.6
2020-Jul-12 06:45 035 1 gusting 9 25.6
2020-Jul-12 06:30 127 25.0
2020-Jul-12 06:15 107 0 gusting 5 24.4
2020-Jul-12 05:46 175 23.9
2020-Jul-12 05:31 156 23.3
2020-Jul-12 05:16 134 22.8
2020-Jul-12 05:01 065 22.2
2020-Jul-12 04:45 355 22.2
2020-Jul-12 04:30 292 22.2
2020-Jul-12 04:15 240 22.2
2020-Jul-12 04:00 159 22.2